Time,TemperatureF,DewpointF,PressureIn,WindDirection,WindDirectionDegrees,WindSpeedMPH,WindSpeedGustMPH,Humidity,HourlyPrecipIn,Conditions,Clouds,dailyrainin,SolarRadiationWatts/m^2,SoftwareType,DateUTC
2013-02-21 00:00:00,69.3,65.9,29.57,SSE,159,12.0,15.0,89,0.00,,,0.00,0,Wunderground v.1.15,2013-02-21 06:00:00,
2013-02-21 00:05:00,69.3,65.9,29.57,SE,138,11.0,15.0,89,0.00,,,0.00,0,Wunderground v.1.15,2013-02-21 06:05:00,
2013-02-21 00:10:00,69.3,65.9,29.57,SE,130,11.0,11.0,89,0.00,,,0.00,0,Wunderground v.1.15,2013-02-21 06:10:00,
2013-02-21 00:20:00,69.2,65.8,29.57,SSE,161,9.0,13.0,89,0.00,,,0.00,0,Wunderground v.1.15,2013-02-21 06:20:00,
2013-02-21 00:25:00,69.2,66.1,29.57,SE,141,10.0,13.0,90,0.00,,,0.00,0,Wunderground v.1.15,2013-02-21 06:25:00,
2013-02-21 00:30:00,69.2,66.1,29.56,SE,144,12.0,13.0,90,0.00,,,0.00,0,Wunderground v.1.15,2013-02-21 06:30:00,
2013-02-21 00:35:00,69.2,66.1,29.56,SSE,154,13.0,13.0,90,0.00,,,0.00,0,Wunderground v.1.15,2013-02-21 06:35:00,
2013-02-21 00:40:00,69.2,66.1,29.56,SSE,156,12.0,12.0,90,0.00,,,0.00,0,Wunderground v.1.15,2013-02-21 06:40:00,
2013-02-21 00:45:00,69.2,65.8,29.56,SSE,150,12.0,14.0,89,0.00,,,0.00,0,Wunderground v.1.15,2013-02-21 06:45:00,
2013-02-21 00:50:00,69.3,65.9,29.56,SE,146,13.0,13.0,89,0.00,,,0.00,0,Wunderground v.1.15,2013-02-21 06:50:00,
2013-02-21 00:55:00,69.4,65.7,29.56,SE,137,13.0,19.0,88,0.00,,,0.00,0,Wunderground v.1.15,2013-02-21 06:55:00,
2013-02-21 01:00:00,69.6,65.9,29.54,South,175,15.0,15.0,88,0.00,,,0.00,0,Wunderground v.1.15,2013-02-21 07:00:00,
2013-02-21 01:05:00,69.7,66.0,29.54,SE,142,15.0,19.0,88,0.00,,,0.00,0,Wunderground v.1.15,2013-02-21 07:05:00,
2013-02-21 01:10:00,69.8,66.1,29.54,SSE,153,14.0,15.0,88,0.00,,,0.00,0,Wunderground v.1.15,2013-02-21 07:10:00,
2013-02-21 01:15:00,69.8,66.1,29.54,SSE,148,12.0,15.0,88,0.00,,,0.00,0,Wunderground v.1.15,2013-02-21 07:15:00,
2013-02-21 01:20:00,69.8,66.1,29.54,SE,144,13.0,13.0,88,0.00,,,0.00,0,Wunderground v.1.15,2013-02-21 07:20:00,
2013-02-21 01:25:00,69.8,66.1,29.54,SE,138,12.0,13.0,88,0.00,,,0.00,0,Wunderground v.1.15,2013-02-21 07:25:00,
2013-02-21 01:30:00,69.8,66.1,29.54,SSE,151,12.0,15.0,88,0.00,,,0.00,0,Wunderground v.1.15,2013-02-21 07:30:00,
2013-02-21 01:35:00,69.8,66.1,29.54,SSE,167,14.0,15.0,88,0.00,,,0.00,0,Wunderground v.1.15,2013-02-21 07:35:00,
2013-02-21 01:40:00,69.8,66.1,29.54,SE,141,13.0,14.0,88,0.00,,,0.00,0,Wunderground v.1.15,2013-02-21 07:40:00,
2013-02-21 01:50:00,69.8,66.1,29.53,SE,146,11.0,11.0,88,0.00,,,0.00,0,Wunderground v.1.15,2013-02-21 07:50:00,
2013-02-21 01:55:00,69.8,66.1,29.53,SE,142,11.0,17.0,88,0.00,,,0.00,0,Wunderground v.1.15,2013-02-21 07:55:00,
2013-02-21 02:00:00,69.8,66.1,29.53,SE,144,13.0,16.0,88,0.00,,,0.00,0,Wunderground v.1.15,2013-02-21 08:00:00,
2013-02-21 02:05:00,69.8,66.1,29.53,SSE,157,14.0,16.0,88,0.00,,,0.00,0,Wunderground v.1.15,2013-02-21 08:05:00,
2013-02-21 02:10:00,69.8,66.1,29.53,SSE,161,13.0,14.0,88,0.00,,,0.00,0,Wunderground v.1.15,2013-02-21 08:10:00,
2013-02-21 02:15:00,69.8,66.1,29.52,SSE,153,12.0,14.0,88,0.00,,,0.00,0,Wunderground v.1.15,2013-02-21 08:15:00,
2013-02-21 02:20:00,69.7,66.0,29.52,SE,133,11.0,11.0,88,0.00,,,0.00,0,Wunderground v.1.15,2013-02-21 08:20:00,
2013-02-21 02:25:00,69.7,66.0,29.52,SE,146,12.0,13.0,88,0.00,,,0.00,0,Wunderground v.1.15,2013-02-21 08:25:00,
2013-02-21 02:30:00,69.7,66.0,29.52,SSE,148,11.0,11.0,88,0.00,,,0.00,0,Wunderground v.1.15,2013-02-21 08:30:00,
2013-02-21 02:35:00,69.7,66.0,29.52,SE,129,11.0,11.0,88,0.00,,,0.00,0,Wunderground v.1.15,2013-02-21 08:35:00,
2013-02-21 02:40:00,69.7,66.3,29.52,SE,137,12.0,16.0,89,0.00,,,0.00,0,Wunderground v.1.15,2013-02-21 08:40:00,
2013-02-21 02:45:00,69.7,66.3,29.51,SE,141,12.0,16.0,89,0.00,,,0.00,0,Wunderground v.1.15,2013-02-21 08:45:00,
2013-02-21 02:50:00,69.7,66.3,29.51,SSE,149,12.0,12.0,89,0.00,,,0.00,0,Wunderground v.1.15,2013-02-21 08:50:00,
2013-02-21 02:55:00,69.7,66.3,29.51,SSE,158,10.0,18.0,89,0.00,,,0.00,0,Wunderground v.1.15,2013-02-21 08:55:00,
2013-02-21 03:00:00,69.8,66.4,29.53,SSE,168,10.0,10.0,89,0.00,,,0.00,0,Wunderground v.1.15,2013-02-21 09:00:00,
2013-02-21 03:05:00,69.7,66.3,29.53,SSE,161,10.0,10.0,89,0.00,,,0.00,0,Wunderground v.1.15,2013-02-21 09:05:00,
2013-02-21 03:15:00,69.7,66.3,29.53,SSE,155,9.0,10.0,89,0.00,,,0.00,0,Wunderground v.1.15,2013-02-21 09:15:00,
2013-02-21 03:20:00,69.7,66.3,29.53,SE,142,7.0,12.0,89,0.00,,,0.00,0,Wunderground v.1.15,2013-02-21 09:20:00,
2013-02-21 03:25:00,69.7,66.3,29.53,SSE,168,8.0,12.0,89,0.00,,,0.00,0,Wunderground v.1.15,2013-02-21 09:25:00,
2013-02-21 03:35:00,69.7,66.3,29.53,SE,142,9.0,14.0,89,0.00,,,0.00,0,Wunderground v.1.15,2013-02-21 09:35:00,
2013-02-21 03:40:00,69.7,66.3,29.53,SE,138,9.0,12.0,89,0.00,,,0.00,0,Wunderground v.1.15,2013-02-21 09:40:00,
2013-02-21 03:45:00,69.7,66.3,29.52,SE,142,9.0,12.0,89,0.00,,,0.00,0,Wunderground v.1.15,2013-02-21 09:45:00,
2013-02-21 03:50:00,69.7,66.3,29.52,SE,141,9.0,9.0,89,0.00,,,0.00,0,Wunderground v.1.15,2013-02-21 09:50:00,
2013-02-21 03:55:00,69.7,66.3,29.52,SSE,149,8.0,10.0,89,0.00,,,0.00,0,Wunderground v.1.15,2013-02-21 09:55:00,
2013-02-21 04:00:00,69.6,66.2,29.51,SSE,153,7.0,9.0,89,0.00,,,0.00,0,Wunderground v.1.15,2013-02-21 10:00:00,
2013-02-21 04:05:00,69.6,66.2,29.51,SSE,151,7.0,9.0,89,0.00,,,0.00,0,Wunderground v.1.15,2013-02-21 10:05:00,
2013-02-21 04:15:00,69.5,66.1,29.51,SSE,157,6.0,7.0,89,0.00,,,0.00,0,Wunderground v.1.15,2013-02-21 10:15:00,
2013-02-21 04:20:00,69.5,66.1,29.51,SE,141,6.0,6.0,89,0.00,,,0.00,0,Wunderground v.1.15,2013-02-21 10:20:00,
2013-02-21 04:25:00,69.5,66.1,29.51,SE,132,7.0,8.0,89,0.00,,,0.00,0,Wunderground v.1.15,2013-02-21 10:25:00,
2013-02-21 04:30:00,69.4,66.0,29.48,SE,129,9.0,9.0,89,0.00,,,0.00,0,Wunderground v.1.15,2013-02-21 10:30:00,
2013-02-21 04:35:00,69.4,66.0,29.48,SE,132,8.0,9.0,89,0.00,,,0.00,0,Wunderground v.1.15,2013-02-21 10:35:00,
2013-02-21 04:40:00,69.4,66.0,29.48,SE,135,6.0,13.0,89,0.00,,,0.00,0,Wunderground v.1.15,2013-02-21 10:40:00,
2013-02-21 04:45:00,69.3,65.9,29.49,SSE,153,7.0,13.0,89,0.00,,,0.00,0,Wunderground v.1.15,2013-02-21 10:45:00,
2013-02-21 04:50:00,69.3,66.2,29.49,SSE,155,6.0,6.0,90,0.00,,,0.00,0,Wunderground v.1.15,2013-02-21 10:50:00,
2013-02-21 04:55:00,69.3,66.2,29.49,SSE,151,7.0,7.0,90,0.00,,,0.00,0,Wunderground v.1.15,2013-02-21 10:55:00,
2013-02-21 05:00:00,69.3,66.2,29.50,SSE,152,8.0,8.0,90,0.00,,,0.00,0,Wunderground v.1.15,2013-02-21 11:00:00,
2013-02-21 05:05:00,69.4,66.3,29.50,South,173,6.0,9.0,90,0.00,,,0.00,0,Wunderground v.1.15,2013-02-21 11:05:00,
2013-02-21 05:10:00,69.4,66.3,29.50,SE,145,6.0,6.0,90,0.00,,,0.00,0,Wunderground v.1.15,2013-02-21 11:10:00,
2013-02-21 05:15:00,69.4,66.3,29.51,SSE,167,6.0,6.0,90,0.00,,,0.00,0,Wunderground v.1.15,2013-02-21 11:15:00,
2013-02-21 05:20:00,69.4,66.3,29.51,SSE,157,5.0,5.0,90,0.00,,,0.00,0,Wunderground v.1.15,2013-02-21 11:20:00,
2013-02-21 05:25:00,69.4,66.3,29.51,SSE,165,6.0,9.0,90,0.00,,,0.00,0,Wunderground v.1.15,2013-02-21 11:25:00,
2013-02-21 05:30:00,69.4,66.3,29.51,SSE,167,7.0,7.0,90,0.00,,,0.00,0,Wunderground v.1.15,2013-02-21 11:30:00,
2013-02-21 05:35:00,69.4,66.0,29.51,South,169,7.0,7.0,89,0.00,,,0.00,0,Wunderground v.1.15,2013-02-21 11:35:00,
2013-02-21 05:40:00,69.4,66.0,29.51,SSE,163,6.0,6.0,89,0.00,,,0.00,0,Wunderground v.1.15,2013-02-21 11:40:00,
2013-02-21 05:45:00,69.4,66.0,29.51,SSE,163,5.0,6.0,89,0.00,,,0.00,0,Wunderground v.1.15,2013-02-21 11:45:00,
2013-02-21 05:50:00,69.4,66.0,29.51,SSE,163,5.0,5.0,89,0.00,,,0.00,0,Wunderground v.1.15,2013-02-21 11:50:00,
2013-02-21 05:55:00,69.4,66.0,29.51,SSE,163,5.0,5.0,89,0.00,,,0.00,0,Wunderground v.1.15,2013-02-21 11:55:00,
2013-02-21 06:00:00,69.4,66.0,29.52,South,180,5.0,13.0,89,0.00,,,0.00,0,Wunderground v.1.15,2013-02-21 12:00:00,
2013-02-21 06:05:00,69.4,66.0,29.52,South,179,6.0,13.0,89,0.00,,,0.00,0,Wunderground v.1.15,2013-02-21 12:05:00,
2013-02-21 06:10:00,69.4,66.0,29.52,South,172,6.0,6.0,89,0.00,,,0.00,0,Wunderground v.1.15,2013-02-21 12:10:00,
2013-02-21 06:15:00,69.3,65.9,29.52,South,172,6.0,6.0,89,0.00,,,0.00,0,Wunderground v.1.15,2013-02-21 12:15:00,
2013-02-21 06:20:00,69.2,65.8,29.52,South,174,6.0,7.0,89,0.00,,,0.00,0,Wunderground v.1.15,2013-02-21 12:20:00,
2013-02-21 06:30:00,69.0,65.6,29.53,South,173,4.0,4.0,89,0.00,,,0.00,0,Wunderground v.1.15,2013-02-21 12:30:00,
2013-02-21 06:35:00,68.9,65.5,29.53,South,173,4.0,4.0,89,0.00,,,0.00,0,Wunderground v.1.15,2013-02-21 12:35:00,
2013-02-21 06:40:00,68.9,65.5,29.53,South,173,4.0,4.0,89,0.00,,,0.00,0,Wunderground v.1.15,2013-02-21 12:40:00,
2013-02-21 06:45:00,68.8,65.4,29.54,South,173,4.0,5.0,89,0.00,,,0.00,0,Wunderground v.1.15,2013-02-21 12:45:00,
2013-02-21 06:50:00,68.7,65.3,29.54,South,173,4.0,6.0,89,0.00,,,0.00,0,Wunderground v.1.15,2013-02-21 12:50:00,
2013-02-21 06:55:00,68.6,65.2,29.54,South,173,4.0,6.0,89,0.00,,,0.00,0,Wunderground v.1.15,2013-02-21 12:55:00,
2013-02-21 07:00:00,68.5,65.1,29.54,South,173,4.0,6.0,89,0.00,,,0.00,0,Wunderground v.1.15,2013-02-21 13:00:00,
2013-02-21 07:05:00,68.4,65.4,29.54,South,173,4.0,6.0,90,0.00,,,0.00,0,Wunderground v.1.15,2013-02-21 13:05:00,
2013-02-21 07:10:00,68.3,65.3,29.54,South,174,4.0,5.0,90,0.00,,,0.00,0,Wunderground v.1.15,2013-02-21 13:10:00,
2013-02-21 07:15:00,68.2,65.2,29.57,South,173,3.0,5.0,90,0.00,,,0.00,0,Wunderground v.1.15,2013-02-21 13:15:00,
2013-02-21 07:20:00,68.2,65.2,29.57,South,173,1.0,1.0,90,0.00,,,0.00,0,Wunderground v.1.15,2013-02-21 13:20:00,
2013-02-21 07:25:00,68.1,65.1,29.57,South,173,0.0,1.0,90,0.00,,,0.00,9,Wunderground v.1.15,2013-02-21 13:25:00,
2013-02-21 07:35:00,68.0,65.0,29.58,South,173,0.0,0.0,90,0.00,,,0.00,23,Wunderground v.1.15,2013-02-21 13:35:00,
2013-02-21 07:45:00,67.9,64.9,29.58,South,173,0.0,0.0,90,0.00,,,0.00,32,Wunderground v.1.15,2013-02-21 13:45:00,
2013-02-21 07:50:00,67.9,64.9,29.58,South,173,0.0,0.0,90,0.00,,,0.00,37,Wunderground v.1.15,2013-02-21 13:50:00,
2013-02-21 07:55:00,67.8,64.8,29.58,South,174,1.0,3.0,90,0.00,,,0.00,44,Wunderground v.1.15,2013-02-21 13:55:00,
2013-02-21 08:00:00,67.8,65.1,29.59,South,173,2.0,3.0,91,0.00,,,0.00,51,Wunderground v.1.15,2013-02-21 14:00:00,
2013-02-21 08:05:00,67.8,65.1,29.59,South,173,2.0,3.0,91,0.00,,,0.00,93,Wunderground v.1.15,2013-02-21 14:05:00,
2013-02-21 08:10:00,68.3,65.9,29.59,South,173,1.0,1.0,92,0.00,,,0.00,95,Wunderground v.1.15,2013-02-21 14:10:00,
2013-02-21 08:15:00,69.0,66.6,29.60,South,173,0.0,1.0,92,0.00,,,0.00,90,Wunderground v.1.15,2013-02-21 14:15:00,
2013-02-21 08:20:00,69.3,66.6,29.60,South,174,1.0,4.0,91,0.00,,,0.00,113,Wunderground v.1.15,2013-02-21 14:20:00,
2013-02-21 08:25:00,69.6,66.5,29.60,South,173,3.0,4.0,90,0.00,,,0.00,125,Wunderground v.1.15,2013-02-21 14:25:00,
2013-02-21 08:30:00,70.2,67.1,29.61,South,173,2.0,3.0,90,0.00,,,0.00,148,Wunderground v.1.15,2013-02-21 14:30:00,
2013-02-21 08:35:00,70.7,67.3,29.61,South,173,3.0,4.0,89,0.00,,,0.00,234,Wunderground v.1.15,2013-02-21 14:35:00,
2013-02-21 08:40:00,71.3,67.6,29.61,South,173,2.0,2.0,88,0.00,,,0.00,77,Wunderground v.1.15,2013-02-21 14:40:00,
2013-02-21 08:45:00,71.3,67.6,29.62,South,173,2.0,2.0,88,0.00,,,0.00,188,Wunderground v.1.15,2013-02-21 14:45:00,
2013-02-21 08:50:00,71.6,67.5,29.62,South,185,3.0,5.0,87,0.00,,,0.00,230,Wunderground v.1.15,2013-02-21 14:50:00,
2013-02-21 08:55:00,72.2,67.8,29.62,South,185,4.0,5.0,86,0.00,,,0.00,278,Wunderground v.1.15,2013-02-21 14:55:00,
2013-02-21 09:05:00,73.3,68.2,29.62,SSW,209,6.0,7.0,84,0.00,,,0.00,388,Wunderground v.1.15,2013-02-21 15:05:00,
2013-02-21 09:10:00,73.5,68.0,29.62,SW,223,6.0,7.0,83,0.00,,,0.00,362,Wunderground v.1.15,2013-02-21 15:10:00,
2013-02-21 09:15:00,73.9,68.1,29.63,SW,232,6.0,7.0,82,0.00,,,0.00,330,Wunderground v.1.15,2013-02-21 15:15:00,
2013-02-21 09:20:00,72.5,59.6,29.63,NNW,329,9.0,9.0,64,0.00,,,0.00,60,Wunderground v.1.15,2013-02-21 15:20:00,
2013-02-21 09:30:00,68.8,53.4,29.65,NW,323,7.0,7.0,58,0.00,,,0.00,111,Wunderground v.1.15,2013-02-21 15:30:00,
2013-02-21 09:35:00,66.8,52.9,29.65,NNW,331,9.0,14.0,61,0.00,,,0.00,461,Wunderground v.1.15,2013-02-21 15:35:00,
2013-02-21 09:40:00,66.8,52.9,29.65,NW,312,11.0,11.0,61,0.00,,,0.00,454,Wunderground v.1.15,2013-02-21 15:40:00,
2013-02-21 09:45:00,67.0,53.1,29.66,NW,323,13.0,15.0,61,0.00,,,0.00,455,Wunderground v.1.15,2013-02-21 15:45:00,
2013-02-21 09:55:00,67.7,53.3,29.66,NNW,337,12.0,16.0,60,0.00,,,0.00,492,Wunderground v.1.15,2013-02-21 15:55:00,
2013-02-21 10:00:00,67.9,53.5,29.66,NW,315,11.0,11.0,60,0.00,,,0.00,504,Wunderground v.1.15,2013-02-21 16:00:00,
2013-02-21 10:05:00,68.6,54.2,29.66,NNW,336,9.0,11.0,60,0.00,,,0.00,524,Wunderground v.1.15,2013-02-21 16:05:00,
2013-02-21 10:10:00,68.5,52.7,29.66,NW,321,11.0,13.0,57,0.00,,,0.00,541,Wunderground v.1.15,2013-02-21 16:10:00,
2013-02-21 10:20:00,68.5,50.7,29.67,NW,321,13.0,13.0,53,0.00,,,0.00,570,Wunderground v.1.15,2013-02-21 16:20:00,
2013-02-21 10:25:00,68.9,51.6,29.67,WNW,291,11.0,13.0,54,0.00,,,0.00,578,Wunderground v.1.15,2013-02-21 16:25:00,
2013-02-21 10:30:00,69.6,51.2,29.67,NW,313,9.0,11.0,52,0.00,,,0.00,594,Wunderground v.1.15,2013-02-21 16:30:00,
2013-02-21 10:35:00,69.1,50.7,29.67,NW,323,12.0,14.0,52,0.00,,,0.00,606,Wunderground v.1.15,2013-02-21 16:35:00,
2013-02-21 10:40:00,69.0,51.2,29.67,NW,313,14.0,14.0,53,0.00,,,0.00,621,Wunderground v.1.15,2013-02-21 16:40:00,
2013-02-21 10:45:00,69.5,51.1,29.68,NW,325,12.0,14.0,52,0.00,,,0.00,626,Wunderground v.1.15,2013-02-21 16:45:00,
2013-02-21 10:50:00,69.6,51.2,29.68,NNE,18,11.0,11.0,52,0.00,,,0.00,647,Wunderground v.1.15,2013-02-21 16:50:00,
2013-02-21 10:55:00,69.9,51.5,29.68,NNW,338,10.0,14.0,52,0.00,,,0.00,650,Wunderground v.1.15,2013-02-21 16:55:00,
2013-02-21 11:00:00,70.5,52.0,29.68,WNW,300,9.0,14.0,52,0.00,,,0.00,724,Wunderground v.1.15,2013-02-21 17:00:00,
2013-02-21 11:05:00,71.0,50.3,29.68,NW,326,11.0,14.0,48,0.00,,,0.00,925,Wunderground v.1.15,2013-02-21 17:05:00,
2013-02-21 11:10:00,70.3,50.2,29.68,NNW,330,12.0,12.0,49,0.00,,,0.00,489,Wunderground v.1.15,2013-02-21 17:10:00,
2013-02-21 11:15:00,70.2,50.1,29.69,NNE,17,10.0,12.0,49,0.00,,,0.00,392,Wunderground v.1.15,2013-02-21 17:15:00,
2013-02-21 11:20:00,69.7,49.7,29.69,NW,304,11.0,18.0,49,0.00,,,0.00,353,Wunderground v.1.15,2013-02-21 17:20:00,
2013-02-21 11:25:00,69.3,47.6,29.69,NW,309,11.0,18.0,46,0.00,,,0.00,302,Wunderground v.1.15,2013-02-21 17:25:00,
2013-02-21 11:30:00,69.2,45.7,29.69,NW,319,11.0,11.0,43,0.00,,,0.00,392,Wunderground v.1.15,2013-02-21 17:30:00,
2013-02-21 11:35:00,69.7,42.9,29.69,NNW,338,10.0,15.0,38,0.00,,,0.00,396,Wunderground v.1.15,2013-02-21 17:35:00,
2013-02-21 11:40:00,69.8,45.0,29.69,NNW,331,11.0,11.0,41,0.00,,,0.00,396,Wunderground v.1.15,2013-02-21 17:40:00,
2013-02-21 11:45:00,70.7,43.1,29.69,NW,317,11.0,11.0,37,0.00,,,0.00,401,Wunderground v.1.15,2013-02-21 17:45:00,
2013-02-21 11:50:00,71.0,42.7,29.69,NNW,334,9.0,10.0,36,0.00,,,0.00,504,Wunderground v.1.15,2013-02-21 17:50:00,
2013-02-21 12:00:00,71.4,42.3,29.68,NNW,338,8.0,8.0,35,0.00,,,0.00,504,Wunderground v.1.15,2013-02-21 18:00:00,
2013-02-21 12:05:00,71.3,42.2,29.68,NW,317,9.0,9.0,35,0.00,,,0.00,461,Wunderground v.1.15,2013-02-21 18:05:00,
2013-02-21 12:10:00,71.5,41.6,29.68,NW,313,10.0,12.0,34,0.00,,,0.00,461,Wunderground v.1.15,2013-02-21 18:10:00,
2013-02-21 12:15:00,71.4,40.8,29.68,WNW,293,10.0,12.0,33,0.00,,,0.00,265,Wunderground v.1.15,2013-02-21 18:15:00,
2013-02-21 12:20:00,71.5,40.9,29.68,West,281,10.0,12.0,33,0.00,,,0.00,571,Wunderground v.1.15,2013-02-21 18:20:00,
2013-02-21 12:25:00,72.1,41.4,29.68,WNW,288,9.0,12.0,33,0.00,,,0.00,482,Wunderground v.1.15,2013-02-21 18:25:00,
2013-02-21 12:35:00,72.6,41.8,29.67,WNW,288,8.0,12.0,33,0.00,,,0.00,390,Wunderground v.1.15,2013-02-21 18:35:00,
2013-02-21 12:40:00,73.0,41.4,29.67,NNW,338,7.0,11.0,32,0.00,,,0.00,385,Wunderground v.1.15,2013-02-21 18:40:00,
2013-02-21 12:45:00,73.5,42.6,29.67,NNW,337,7.0,11.0,33,0.00,,,0.00,534,Wunderground v.1.15,2013-02-21 18:45:00,
2013-02-21 12:55:00,74.7,40.3,29.67,NW,317,7.0,7.0,29,0.00,,,0.00,668,Wunderground v.1.15,2013-02-21 18:55:00,
2013-02-21 13:00:00,74.7,40.3,29.67,NW,311,7.0,7.0,29,0.00,,,0.00,339,Wunderground v.1.15,2013-02-21 19:00:00,
2013-02-21 13:05:00,75.5,40.1,29.67,WNW,294,8.0,13.0,28,0.00,,,0.00,761,Wunderground v.1.15,2013-02-21 19:05:00,
2013-02-21 13:10:00,75.4,39.1,29.67,West,281,9.0,10.0,27,0.00,,,0.00,782,Wunderground v.1.15,2013-02-21 19:10:00,
2013-02-21 13:20:00,75.6,39.2,29.67,WNW,290,8.0,11.0,27,0.00,,,0.00,766,Wunderground v.1.15,2013-02-21 19:20:00,
2013-02-21 13:25:00,75.6,39.2,29.67,WNW,284,7.0,11.0,27,0.00,,,0.00,652,Wunderground v.1.15,2013-02-21 19:25:00,
2013-02-21 13:30:00,75.4,39.1,29.65,WNW,290,9.0,10.0,27,0.00,,,0.00,443,Wunderground v.1.15,2013-02-21 19:30:00,
2013-02-21 13:35:00,76.0,38.6,29.65,WNW,303,9.0,10.0,26,0.00,,,0.00,527,Wunderground v.1.15,2013-02-21 19:35:00,
2013-02-21 13:40:00,76.5,38.0,29.65,WNW,287,9.0,9.0,25,0.00,,,0.00,517,Wunderground v.1.15,2013-02-21 19:40:00,
2013-02-21 13:45:00,76.3,37.9,29.65,West,264,9.0,9.0,25,0.00,,,0.00,469,Wunderground v.1.15,2013-02-21 19:45:00,
2013-02-21 13:50:00,76.9,39.4,29.65,NW,310,6.0,7.0,26,0.00,,,0.00,742,Wunderground v.1.15,2013-02-21 19:50:00,
2013-02-21 13:55:00,77.4,39.8,29.65,WNW,284,5.0,7.0,26,0.00,,,0.00,608,Wunderground v.1.15,2013-02-21 19:55:00,
2013-02-21 14:00:00,77.9,37.1,29.63,West,278,6.0,6.0,23,0.00,,,0.00,754,Wunderground v.1.15,2013-02-21 20:00:00,
2013-02-21 14:10:00,77.7,35.8,29.63,West,276,5.0,10.0,22,0.00,,,0.00,647,Wunderground v.1.15,2013-02-21 20:10:00,
2013-02-21 14:20:00,78.2,37.4,29.63,NW,311,7.0,9.0,23,0.00,,,0.00,754,Wunderground v.1.15,2013-02-21 20:20:00,
2013-02-21 14:30:00,78.1,36.1,29.63,WNW,283,8.0,8.0,22,0.00,,,0.00,608,Wunderground v.1.15,2013-02-21 20:30:00,
2013-02-21 14:35:00,77.9,37.1,29.63,WNW,282,7.0,8.0,23,0.00,,,0.00,575,Wunderground v.1.15,2013-02-21 20:35:00,
2013-02-21 14:40:00,78.6,36.6,29.63,West,277,6.0,6.0,22,0.00,,,0.00,622,Wunderground v.1.15,2013-02-21 20:40:00,
2013-02-21 14:45:00,78.7,36.6,29.63,West,268,6.0,6.0,22,0.00,,,0.00,510,Wunderground v.1.15,2013-02-21 20:45:00,
2013-02-21 14:50:00,79.4,36.0,29.63,West,270,6.0,6.0,21,0.00,,,0.00,408,Wunderground v.1.15,2013-02-21 20:50:00,
2013-02-21 14:55:00,79.1,35.8,29.63,SW,235,8.0,12.0,21,0.00,,,0.00,673,Wunderground v.1.15,2013-02-21 20:55:00,
2013-02-21 15:05:00,79.0,35.7,29.62,West,275,8.0,11.0,21,0.00,,,0.00,485,Wunderground v.1.15,2013-02-21 21:05:00,
2013-02-21 15:10:00,78.7,35.5,29.62,WNW,293,7.0,7.0,21,0.00,,,0.00,592,Wunderground v.1.15,2013-02-21 21:10:00,
2013-02-21 15:15:00,78.4,35.2,29.61,West,272,6.0,7.0,21,0.00,,,0.00,315,Wunderground v.1.15,2013-02-21 21:15:00,
2013-02-21 15:25:00,78.5,34.1,29.61,WNW,297,6.0,6.0,20,0.00,,,0.00,265,Wunderground v.1.15,2013-02-21 21:25:00,
2013-02-21 15:30:00,78.1,33.7,29.61,West,279,5.0,5.0,20,0.00,,,0.00,255,Wunderground v.1.15,2013-02-21 21:30:00,
2013-02-21 15:35:00,78.0,32.4,29.61,WNW,287,6.0,9.0,19,0.00,,,0.00,190,Wunderground v.1.15,2013-02-21 21:35:00,
2013-02-21 15:40:00,77.7,32.1,29.61,West,273,6.0,6.0,19,0.00,,,0.00,185,Wunderground v.1.15,2013-02-21 21:40:00,
2013-02-21 15:45:00,77.8,34.7,29.61,West,269,5.0,6.0,21,0.00,,,0.00,221,Wunderground v.1.15,2013-02-21 21:45:00,
2013-02-21 15:50:00,78.3,33.9,29.61,West,261,4.0,5.0,20,0.00,,,0.00,338,Wunderground v.1.15,2013-02-21 21:50:00,
2013-02-21 15:55:00,78.3,33.9,29.61,West,265,4.0,5.0,20,0.00,,,0.00,309,Wunderground v.1.15,2013-02-21 21:55:00,
2013-02-21 16:00:00,78.7,35.5,29.61,West,281,3.0,3.0,21,0.00,,,0.00,362,Wunderground v.1.15,2013-02-21 22:00:00,
2013-02-21 16:05:00,78.9,31.8,29.61,West,279,3.0,4.0,18,0.00,,,0.00,283,Wunderground v.1.15,2013-02-21 22:05:00,
2013-02-21 16:15:00,78.7,33.0,29.62,WNW,294,3.0,5.0,19,0.00,,,0.00,343,Wunderground v.1.15,2013-02-21 22:15:00,
2013-02-21 16:20:00,79.0,33.2,29.62,NNW,337,2.0,2.0,19,0.00,,,0.00,281,Wunderground v.1.15,2013-02-21 22:20:00,
2013-02-21 16:30:00,78.7,31.6,29.62,WNW,286,4.0,4.0,18,0.00,,,0.00,294,Wunderground v.1.15,2013-02-21 22:30:00,
2013-02-21 16:35:00,78.7,31.6,29.62,WNW,294,3.0,5.0,18,0.00,,,0.00,218,Wunderground v.1.15,2013-02-21 22:35:00,
2013-02-21 16:40:00,78.6,31.5,29.62,WNW,284,3.0,4.0,18,0.00,,,0.00,193,Wunderground v.1.15,2013-02-21 22:40:00,
2013-02-21 16:45:00,78.4,31.4,29.62,West,277,3.0,5.0,18,0.00,,,0.00,179,Wunderground v.1.15,2013-02-21 22:45:00,
2013-02-21 16:50:00,78.2,29.8,29.62,West,273,5.0,7.0,17,0.00,,,0.00,165,Wunderground v.1.15,2013-02-21 22:50:00,
2013-02-21 16:55:00,78.0,31.0,29.62,West,275,4.0,7.0,18,0.00,,,0.00,165,Wunderground v.1.15,2013-02-21 22:55:00,
2013-02-21 17:00:00,77.9,31.0,29.62,West,275,2.0,3.0,18,0.00,,,0.00,151,Wunderground v.1.15,2013-02-21 23:00:00,
2013-02-21 17:10:00,77.4,31.9,29.62,West,275,0.0,0.0,19,0.00,,,0.00,135,Wunderground v.1.15,2013-02-21 23:10:00,
2013-02-21 17:15:00,77.4,31.9,29.63,West,275,0.0,0.0,19,0.00,,,0.00,141,Wunderground v.1.15,2013-02-21 23:15:00,
2013-02-21 17:25:00,77.4,30.5,29.63,West,275,1.0,1.0,18,0.00,,,0.00,109,Wunderground v.1.15,2013-02-21 23:25:00,
2013-02-21 17:30:00,77.2,30.4,29.63,West,275,0.0,0.0,18,0.00,,,0.00,90,Wunderground v.1.15,2013-02-21 23:30:00,
2013-02-21 17:35:00,77.0,30.2,29.63,NW,305,1.0,1.0,18,0.00,,,0.00,81,Wunderground v.1.15,2013-02-21 23:35:00,
2013-02-21 17:40:00,76.9,30.1,29.63,WNW,302,3.0,7.0,18,0.00,,,0.00,74,Wunderground v.1.15,2013-02-21 23:40:00,
2013-02-21 17:45:00,76.6,28.5,29.64,NW,304,5.0,7.0,17,0.00,,,0.00,62,Wunderground v.1.15,2013-02-21 23:45:00,
2013-02-21 17:50:00,76.3,28.3,29.64,WNW,303,4.0,4.0,17,0.00,,,0.00,49,Wunderground v.1.15,2013-02-21 23:50:00,
2013-02-21 17:55:00,76.2,29.6,29.64,WNW,302,3.0,4.0,18,0.00,,,0.00,33,Wunderground v.1.15,2013-02-21 23:55:00,
2013-02-21 18:00:00,76.1,28.1,29.65,NW,306,3.0,3.0,17,0.00,,,0.00,32,Wunderground v.1.15,2013-02-22 00:00:00,
2013-02-21 18:05:00,76.0,29.4,29.65,NW,304,2.0,3.0,18,0.00,,,0.00,25,Wunderground v.1.15,2013-02-22 00:05:00,
2013-02-21 18:10:00,75.7,29.2,29.65,NW,305,1.0,1.0,18,0.00,,,0.00,18,Wunderground v.1.15,2013-02-22 00:10:00,
2013-02-21 18:20:00,75.1,28.7,29.65,NW,305,2.0,3.0,18,0.00,,,0.00,7,Wunderground v.1.15,2013-02-22 00:20:00,
2013-02-21 18:25:00,74.9,28.5,29.65,NW,308,2.0,3.0,18,0.00,,,0.00,0,Wunderground v.1.15,2013-02-22 00:25:00,
2013-02-21 18:30:00,74.6,29.6,29.66,NW,313,1.0,3.0,19,0.00,,,0.00,0,Wunderground v.1.15,2013-02-22 00:30:00,
2013-02-21 18:35:00,74.2,29.3,29.66,NW,326,2.0,3.0,19,0.00,,,0.00,0,Wunderground v.1.15,2013-02-22 00:35:00,
2013-02-21 18:40:00,73.9,29.0,29.66,NW,325,3.0,3.0,19,0.00,,,0.00,0,Wunderground v.1.15,2013-02-22 00:40:00,
2013-02-21 18:45:00,73.6,30.0,29.67,NW,325,2.0,3.0,20,0.00,,,0.00,0,Wunderground v.1.15,2013-02-22 00:45:00,
2013-02-21 18:50:00,73.3,29.8,29.67,NW,325,2.0,2.0,20,0.00,,,0.00,0,Wunderground v.1.15,2013-02-22 00:50:00,
2013-02-21 18:55:00,73.0,29.5,29.67,NNW,327,1.0,4.0,20,0.00,,,0.00,0,Wunderground v.1.15,2013-02-22 00:55:00,
2013-02-21 19:00:00,72.4,29.0,29.68,NNW,327,1.0,1.0,20,0.00,,,0.00,0,Wunderground v.1.15,2013-02-22 01:00:00,
2013-02-21 19:10:00,71.6,29.6,29.68,NNW,327,0.0,0.0,21,0.00,,,0.00,0,Wunderground v.1.15,2013-02-22 01:10:00,
2013-02-21 19:20:00,70.9,30.1,29.69,NNW,327,0.0,0.0,22,0.00,,,0.00,0,Wunderground v.1.15,2013-02-22 01:20:00,
2013-02-21 19:25:00,70.5,29.8,29.69,NNW,328,0.0,0.0,22,0.00,,,0.00,0,Wunderground v.1.15,2013-02-22 01:25:00,
2013-02-21 19:30:00,70.1,30.6,29.69,NNW,328,0.0,0.0,23,0.00,,,0.00,0,Wunderground v.1.15,2013-02-22 01:30:00,
2013-02-21 19:35:00,69.8,31.4,29.69,NNW,328,0.0,0.0,24,0.00,,,0.00,0,Wunderground v.1.15,2013-02-22 01:35:00,
2013-02-21 19:40:00,69.3,30.9,29.69,NNW,328,0.0,0.0,24,0.00,,,0.00,0,Wunderground v.1.15,2013-02-22 01:40:00,
2013-02-21 19:50:00,68.3,31.1,29.69,NNW,327,0.0,0.0,25,0.00,,,0.00,0,Wunderground v.1.15,2013-02-22 01:50:00,
2013-02-21 19:55:00,67.7,30.6,29.69,NNW,327,0.0,0.0,25,0.00,,,0.00,0,Wunderground v.1.15,2013-02-22 01:55:00,
2013-02-21 20:00:00,67.1,31.0,29.71,NNW,327,1.0,3.0,26,0.00,,,0.00,0,Wunderground v.1.15,2013-02-22 02:00:00,
2013-02-21 20:05:00,66.6,29.6,29.71,NNW,328,2.0,3.0,25,0.00,,,0.00,0,Wunderground v.1.15,2013-02-22 02:05:00,
2013-02-21 20:10:00,66.2,29.3,29.71,NNW,327,1.0,1.0,25,0.00,,,0.00,0,Wunderground v.1.15,2013-02-22 02:10:00,
2013-02-21 20:15:00,65.9,29.1,29.71,NNW,327,0.0,1.0,25,0.00,,,0.00,0,Wunderground v.1.15,2013-02-22 02:15:00,
2013-02-21 20:20:00,65.6,29.8,29.71,NNW,328,1.0,1.0,26,0.00,,,0.00,0,Wunderground v.1.15,2013-02-22 02:20:00,
2013-02-21 20:30:00,65.2,30.3,29.72,NNW,328,2.0,4.0,27,0.00,,,0.00,0,Wunderground v.1.15,2013-02-22 02:30:00,
2013-02-21 20:35:00,65.1,30.3,29.72,NNW,328,3.0,4.0,27,0.00,,,0.00,0,Wunderground v.1.15,2013-02-22 02:35:00,
2013-02-21 20:45:00,64.8,29.1,29.72,NNW,327,1.0,2.0,26,0.00,,,0.00,0,Wunderground v.1.15,2013-02-22 02:45:00,
2013-02-21 20:50:00,64.6,28.9,29.72,NNW,327,0.0,0.0,26,0.00,,,0.00,0,Wunderground v.1.15,2013-02-22 02:50:00,
2013-02-21 20:55:00,64.5,28.8,29.72,NNW,327,0.0,0.0,26,0.00,,,0.00,0,Wunderground v.1.15,2013-02-22 02:55:00,
2013-02-21 21:00:00,64.3,28.7,29.72,NNW,327,0.0,1.0,26,0.00,,,0.00,0,Wunderground v.1.15,2013-02-22 03:00:00,
2013-02-21 21:05:00,64.2,29.5,29.72,NNW,328,1.0,1.0,27,0.00,,,0.00,0,Wunderground v.1.15,2013-02-22 03:05:00,
2013-02-21 21:15:00,63.7,29.1,29.74,NNW,328,0.0,1.0,27,0.00,,,0.00,0,Wunderground v.1.15,2013-02-22 03:15:00,
2013-02-21 21:20:00,63.5,28.9,29.74,NNW,328,0.0,0.0,27,0.00,,,0.00,0,Wunderground v.1.15,2013-02-22 03:20:00,
2013-02-21 21:25:00,63.2,29.5,29.74,NNW,328,0.0,0.0,28,0.00,,,0.00,0,Wunderground v.1.15,2013-02-22 03:25:00,
2013-02-21 21:30:00,62.8,29.2,29.74,NNW,328,1.0,2.0,28,0.00,,,0.00,0,Wunderground v.1.15,2013-02-22 03:30:00,
2013-02-21 21:35:00,62.3,29.6,29.74,NNW,328,1.0,2.0,29,0.00,,,0.00,0,Wunderground v.1.15,2013-02-22 03:35:00,
2013-02-21 21:40:00,61.9,30.9,29.74,NNW,329,2.0,6.0,31,0.00,,,0.00,0,Wunderground v.1.15,2013-02-22 03:40:00,
2013-02-21 21:50:00,61.4,28.0,29.73,NNW,335,2.0,2.0,28,0.00,,,0.00,0,Wunderground v.1.15,2013-02-22 03:50:00,
2013-02-21 21:55:00,61.6,28.1,29.73,NNW,336,2.0,3.0,28,0.00,,,0.00,0,Wunderground v.1.15,2013-02-22 03:55:00,
2013-02-21 22:00:00,61.7,29.1,29.74,NNW,336,3.0,3.0,29,0.00,,,0.00,0,Wunderground v.1.15,2013-02-22 04:00:00,
2013-02-21 22:05:00,61.7,29.1,29.74,NNW,336,3.0,3.0,29,0.00,,,0.00,0,Wunderground v.1.15,2013-02-22 04:05:00,
2013-02-21 22:10:00,61.6,29.0,29.74,NNW,336,3.0,4.0,29,0.00,,,0.00,0,Wunderground v.1.15,2013-02-22 04:10:00,
2013-02-21 22:15:00,61.5,28.1,29.73,NNW,336,3.0,4.0,28,0.00,,,0.00,0,Wunderground v.1.15,2013-02-22 04:15:00,
2013-02-21 22:25:00,61.4,28.0,29.73,NNW,336,2.0,4.0,28,0.00,,,0.00,0,Wunderground v.1.15,2013-02-22 04:25:00,
2013-02-21 22:35:00,61.4,28.0,29.74,NNW,336,1.0,2.0,28,0.00,,,0.00,0,Wunderground v.1.15,2013-02-22 04:35:00,
2013-02-21 22:40:00,61.3,27.0,29.74,NNW,336,0.0,0.0,27,0.00,,,0.00,0,Wunderground v.1.15,2013-02-22 04:40:00,
2013-02-21 22:45:00,61.3,27.9,29.75,NNW,336,0.0,0.0,28,0.00,,,0.00,0,Wunderground v.1.15,2013-02-22 04:45:00,
2013-02-21 22:50:00,61.1,29.4,29.75,NNW,336,0.0,0.0,30,0.00,,,0.00,0,Wunderground v.1.15,2013-02-22 04:50:00,
2013-02-21 22:55:00,60.8,28.3,29.75,NNW,336,0.0,0.0,29,0.00,,,0.00,0,Wunderground v.1.15,2013-02-22 04:55:00,
2013-02-21 23:00:00,60.5,28.1,29.75,NNW,336,0.0,0.0,29,0.00,,,0.00,0,Wunderground v.1.15,2013-02-22 05:00:00,
2013-02-21 23:05:00,60.2,28.6,29.75,NNW,336,1.0,2.0,30,0.00,,,0.00,0,Wunderground v.1.15,2013-02-22 05:05:00,
2013-02-21 23:10:00,59.8,28.3,29.75,NNW,336,2.0,3.0,30,0.00,,,0.00,0,Wunderground v.1.15,2013-02-22 05:10:00,
2013-02-21 23:15:00,59.6,28.1,29.75,NNW,336,3.0,3.0,30,0.00,,,0.00,0,Wunderground v.1.15,2013-02-22 05:15:00,
2013-02-21 23:20:00,59.5,28.0,29.75,NNW,336,2.0,2.0,30,0.00,,,0.00,0,Wunderground v.1.15,2013-02-22 05:20:00,
2013-02-21 23:25:00,59.3,27.8,29.75,NNW,336,2.0,2.0,30,0.00,,,0.00,0,Wunderground v.1.15,2013-02-22 05:25:00,
2013-02-21 23:30:00,59.0,28.4,29.76,NNW,336,2.0,2.0,31,0.00,,,0.00,0,Wunderground v.1.15,2013-02-22 05:30:00,
2013-02-21 23:35:00,59.0,28.4,29.76,NNW,336,1.0,2.0,31,0.00,,,0.00,0,Wunderground v.1.15,2013-02-22 05:35:00,
2013-02-21 23:40:00,59.0,28.4,29.76,NNW,336,0.0,0.0,31,0.00,,,0.00,0,Wunderground v.1.15,2013-02-22 05:40:00,
2013-02-21 23:45:00,58.7,28.1,29.76,NNW,336,0.0,0.0,31,0.00,,,0.00,0,Wunderground v.1.15,2013-02-22 05:45:00,
2013-02-21 23:50:00,58.4,28.6,29.76,NNW,336,0.0,0.0,32,0.00,,,0.00,0,Wunderground v.1.15,2013-02-22 05:50:00,